Simultaneous Nadir Overpasses (SNOs) Predictions

Prediction of SNOs between METOP-B and TERRA Satellite Orbit:

Table of predicted SNOs for the next 14.0 days since TLE Epoch: 5/20/2023
Index Date (METOP-B) Time (METOP-B) Lat,Lon (METOP-B) SZA (METOP-B ) Date (TERRA) Time (TERRA) Lat,Lon (TERRA) SZA (TERRA ) Distance(km) Time Diff (sec)
1 05/22/2023 15:47:32 -80.83, 155.80 118.01 05/22/2023 15:48:07 -80.84, 155.94 117.98 2.37 35
2 05/22/2023 16:38:09 80.90, -35.61 62.16 05/22/2023 16:37:27 80.91, -35.59 62.15 0.61 42
3 05/25/2023 07:08:28 80.81, 105.16 61.44 05/25/2023 07:09:40 80.82, 105.25 61.48 1.58 72
4 05/25/2023 07:59:06 -80.87, -86.43 118.43 05/25/2023 07:59:00 -80.88, -86.34 118.41 1.87 6
5 05/27/2023 23:20:02 80.84,-137.16 61.05 05/27/2023 23:20:33 80.84,-137.25 61.05 1.75 31
6 05/28/2023 00:10:40 -80.90, 31.28 118.81 05/28/2023 00:09:53 -80.90, 31.21 118.83 1.20 47
7 05/30/2023 14:40:59 -80.81, 171.97 119.46 05/30/2023 14:42:05 -80.81, 172.09 119.42 2.17 66
8 05/30/2023 15:31:36 80.87, -19.54 60.70 05/30/2023 15:31:25 80.87, -19.59 60.69 0.86 11
9 06/02/2023 06:52:32 -80.84, -70.44 119.77 06/02/2023 06:52:56 -80.84, -70.39 119.76 1.01 24



Historial Predications of SNOs between METOP-B and TERRA
